Date String (YYYY-MM-DD hh:mm:ss) UTC,Instrument flags,absolute air pressure of the measurement (hPa),sample flow rate (lpm),inlet stack bypass flow (lpm),air temperature of the measurement (°C),ambient temperature measured by the external sensor (°C),aerosol sample conditioner tube jacket temperature (°C),OPC LED temperature (°C),internal box temperature (°C),relative humidity of the measurement (%),span deviation,mass concentration of particles derived from Lorenz-Mie calculation of OPC scattering (μg/m³),mass concentration of particles derived from Lorenz-Mie calculation of OPC scattering (μg/m³),mass concentration of particles derived from Lorenz-Mie calculation of OPC scattering (μg/m³)
DateTimeUTC,F1_M11,P_M11,Q1_M11,Q2_M11,T1_M11,T2_M11,T3_M11,T4_M11,T5_M11,U1_M11,ZSPAN_M11,X2_M11,X0_M11,X1_M11
2024-01-10 17:00:00,SystemResetWarning,0813.0,5.01,000.00,018.7,017.5,000.0,027.3,020.0,8.3,0000.0,0001.47,0010.94,0000.50
2024-01-10 17:01:00,SystemResetWarning,0812.8,5.01,000.00,018.7,017.6,000.0,027.3,020.2,8.1,0000.0,0001.49,0011.06,0000.52
2024-01-10 17:02:00,SystemResetWarning,0812.9,5.01,000.00,018.8,018.6,000.0,027.2,020.6,7.7,0000.0,0001.57,0011.15,0000.55
2024-01-10 17:03:00,SystemResetWarning,0813.0,5.00,000.00,019.0,019.4,000.0,027.2,020.9,7.9,0000.0,0001.73,0010.47,0000.58
2024-01-10 17:04:00,SystemResetWarning,0813.1,5.00,000.00,019.0,019.2,000.0,027.2,020.6,7.8,0000.0,0001.91,0010.55,0000.63
2024-01-10 17:05:00,SystemResetWarning,0813.0,4.99,000.00,019.0,019.0,000.0,027.2,020.4,7.8,0000.0,0002.03,0010.62,0000.70
2024-01-10 17:06:00,SystemResetWarning,0813.0,5.02,000.00,019.0,018.7,000.0,027.2,020.1,7.9,0000.0,0002.16,0010.39,0000.75
2024-01-10 17:07:00,SystemResetWarning,0813.0,4.99,000.00,018.9,018.4,000.0,027.3,020.0,7.8,0000.0,0002.25,0010.80,0000.80
2024-01-10 17:08:00,SystemResetWarning,0813.1,4.98,000.00,018.8,018.2,000.0,027.3,020.0,7.7,0000.0,0002.38,0011.93,0000.84
2024-01-10 17:09:00,SystemResetWarning,0813.2,5.00,000.00,018.8,018.0,000.0,027.3,020.0,7.9,0000.0,0002.45,0012.15,0000.87
2024-01-10 17:10:00,SystemResetWarning,0813.1,5.00,000.00,018.8,017.8,000.0,027.3,020.0,8.1,0000.0,0002.72,0013.21,0000.91
2024-01-10 17:11:00,SystemResetWarning,0813.0,5.00,000.00,018.8,017.6,000.0,027.3,020.0,8.1,0000.0,0002.82,0012.95,0000.94
2024-01-10 17:12:00,SystemResetWarning,0813.0,5.00,000.00,018.8,017.5,000.0,027.3,020.0,8.0,0000.0,0002.83,0012.87,0000.96
2024-01-10 17:13:00,SystemResetWarning,0813.1,5.00,000.00,018.8,017.4,000.0,027.3,020.0,8.0,0000.0,0002.86,0013.96,0000.97
2024-01-10 17:14:00,SystemResetWarning,0813.1,5.01,000.00,018.8,017.3,000.0,027.2,020.0,8.1,0000.0,0002.80,0013.92,0000.97
2024-01-10 17:15:00,SystemResetWarning,0813.1,5.01,000.00,018.8,017.6,000.0,027.2,020.2,8.1,0000.0,0002.62,0013.21,0000.95
2024-01-10 17:16:00,SystemResetWarning,0813.0,4.99,000.00,018.9,018.7,000.0,027.2,020.8,8.2,0000.0,0002.54,0013.06,0000.92
2024-01-10 17:17:00,SystemResetWarning,0812.9,5.01,000.00,019.1,019.4,000.0,027.2,021.0,8.1,0000.0,0002.48,0012.96,0000.91
2024-01-10 17:18:00,SystemResetWarning,0812.9,4.98,000.00,019.1,019.2,000.0,027.2,020.6,8.0,0000.0,0002.43,0012.59,0000.89
2024-01-10 17:19:00,SystemResetWarning,0813.0,5.00,000.00,019.0,018.9,000.0,027.3,020.4,8.1,0000.0,0002.33,0011.24,0000.87
2024-01-10 17:20:00,SystemResetWarning,0812.9,5.00,000.00,019.0,018.6,000.0,027.3,020.2,8.3,0000.0,0002.32,0010.31,0000.88
2024-01-10 17:21:00,SystemResetWarning,0813.0,5.00,000.00,018.9,018.3,000.0,027.3,020.0,8.2,0000.0,0002.09,0009.00,0000.87
2024-01-10 17:22:00,SystemResetWarning,0813.1,5.00,000.00,018.8,018.1,000.0,027.3,020.0,8.2,0000.0,0001.99,0008.30,0000.88
2024-01-10 17:23:00,SystemResetWarning,0813.1,5.00,000.00,018.8,017.9,000.0,027.3,020.0,8.3,0000.0,0001.96,0008.32,0000.88
2024-01-10 17:24:00,SystemResetWarning,0813.1,5.00,000.00,018.7,017.7,000.0,027.3,020.0,8.2,0000.0,0001.94,0006.88,0000.90
2024-01-10 17:25:00,SystemResetWarning,0813.1,5.01,000.00,018.7,017.5,000.0,027.3,020.0,8.2,0000.0,0001.85,0006.93,0000.88
2024-01-10 17:26:00,SystemResetWarning,0813.0,5.00,000.00,018.7,017.5,000.0,027.3,020.0,8.2,0000.0,0001.79,0006.42,0000.86
2024-01-10 17:27:00,SystemResetWarning,0813.0,5.00,000.00,018.7,018.0,000.0,027.3,020.4,8.0,0000.0,0001.74,0006.39,0000.83
2024-01-10 17:28:00,SystemResetWarning,0813.1,4.99,000.00,018.9,019.0,000.0,027.3,020.9,8.0,0000.0,0001.62,0006.21,0000.79
2024-01-10 17:29:00,SystemResetWarning,0812.9,4.99,000.00,019.1,019.4,000.0,027.3,020.9,7.9,0000.0,0001.54,0006.98,0000.75
2024-01-10 17:30:00,SystemResetWarning,0813.0,5.01,000.00,019.1,019.2,000.0,027.3,020.6,7.8,0000.0,0001.51,0007.51,0000.72
2024-01-10 17:31:00,SystemResetWarning,0813.2,5.00,000.00,019.0,018.9,000.0,027.3,020.3,7.8,0000.0,0001.43,0007.50,0000.67
2024-01-10 17:32:00,SystemResetWarning,0813.0,4.99,000.00,019.0,018.6,000.0,027.3,020.1,7.9,0000.0,0001.39,0007.92,0000.61
2024-01-10 17:33:00,SystemResetWarning,0813.1,5.01,000.00,018.9,018.3,000.0,027.2,020.0,7.8,0000.0,0001.38,0009.11,0000.57
2024-01-10 17:34:00,SystemResetWarning,0813.0,5.00,000.00,018.9,018.1,000.0,027.3,020.0,7.9,0000.0,0001.42,0009.86,0000.54
2024-01-10 17:35:00,SystemResetWarning,0812.9,5.00,000.00,018.9,017.9,000.0,027.3,020.0,7.8,0000.0,0001.39,0009.93,0000.51
2024-01-10 17:36:00,SystemResetWarning,0812.7,5.02,000.00,018.8,017.7,000.0,027.2,020.0,7.6,0000.0,0001.54,0010.70,0000.51
2024-01-10 17:37:00,SystemResetWarning,0812.7,4.99,000.00,018.8,017.6,000.0,027.3,020.0,7.3,0000.0,0001.62,0011.72,0000.51
2024-01-10 17:38:00,SystemResetWarning,0812.9,4.99,000.00,018.7,017.5,000.0,027.3,020.0,7.3,0000.0,0001.64,0011.76,0000.50
2024-01-10 17:39:00,SystemResetWarning,0812.9,5.02,000.00,018.7,017.4,000.0,027.3,020.1,7.5,0000.0,0001.61,0011.77,0000.49
2024-01-10 17:40:00,SystemResetWarning,0812.9,5.00,000.00,018.8,018.1,000.0,027.3,020.5,7.5,0000.0,0001.59,0011.65,0000.49
2024-01-10 17:41:00,SystemResetWarning,0813.0,4.99,000.00,019.0,019.2,000.0,027.3,020.9,7.6,0000.0,0001.54,0011.32,0000.48
2024-01-10 17:42:00,SystemResetWarning,0813.0,5.00,000.00,019.1,019.4,000.0,027.3,020.8,7.4,0000.0,0001.48,0011.20,0000.47
2024-01-10 17:43:00,SystemResetWarning,0812.9,5.00,000.00,019.1,019.2,000.0,027.3,020.5,7.4,0000.0,0001.48,0010.88,0000.48
2024-01-10 17:44:00,SystemResetWarning,0812.9,5.00,000.00,019.1,019.0,000.0,027.3,020.4,7.4,0000.0,0001.49,0009.99,0000.47
2024-01-10 17:45:00,SystemResetWarning,0813.0,4.99,000.00,019.0,018.7,000.0,027.2,020.3,7.4,0000.0,0001.46,0009.64,0000.46
2024-01-10 17:46:00,SystemResetWarning,0813.0,5.00,000.00,019.0,018.5,000.0,027.2,020.1,7.4,0000.0,0001.43,0009.44,0000.45
2024-01-10 17:47:00,SystemResetWarning,0813.0,5.01,000.00,018.9,018.2,000.0,027.2,020.0,7.3,0000.0,0001.30,0008.42,0000.43
2024-01-10 17:48:00,SystemResetWarning,0812.9,5.01,000.00,018.9,018.0,000.0,027.2,020.0,7.2,0000.0,0001.15,0007.04,0000.41
2024-01-10 17:49:00,SystemResetWarning,0813.0,5.01,000.00,018.9,017.8,000.0,027.2,020.0,7.2,0000.0,0001.07,0006.82,0000.40
2024-01-10 17:50:00,SystemResetWarning,0813.0,5.00,000.00,018.8,017.6,000.0,027.3,020.0,7.2,0000.0,0001.05,0006.72,0000.40
2024-01-10 17:51:00,SystemResetWarning,0813.0,4.99,000.00,018.8,017.5,000.0,027.2,020.0,7.2,0000.0,0001.11,0007.64,0000.40
2024-01-10 17:52:00,SystemResetWarning,0813.0,4.99,000.00,018.8,017.5,000.0,027.2,020.0,7.0,0000.0,0001.65,0010.07,0000.43
2024-01-10 17:53:00,SystemResetWarning,0813.1,5.00,000.00,018.7,017.4,000.0,027.3,020.0,7.0,0000.0,0002.07,0013.42,0000.46
2024-01-10 17:54:00,SystemResetWarning,0813.1,5.01,000.00,018.7,017.7,000.0,027.3,020.3,7.1,0000.0,0002.14,0013.89,0000.47
2024-01-10 17:55:00,SystemResetWarning,0813.1,5.01,000.00,018.9,018.8,000.0,027.2,020.8,7.1,0000.0,0002.20,0015.00,0000.47
2024-01-10 17:56:00,SystemResetWarning,0813.1,4.99,000.00,019.1,019.4,000.0,027.3,020.9,7.0,0000.0,0002.14,0014.97,0000.46
2024-01-10 17:57:00,SystemResetWarning,0813.1,4.99,000.00,019.1,019.2,000.0,027.3,020.6,6.9,0000.0,0002.14,0015.13,0000.46
2024-01-10 17:58:00,SystemResetWarning,0813.1,5.01,000.00,019.1,019.0,000.0,027.3,020.4,6.8,0000.0,0002.12,0015.12,0000.46
2024-01-10 17:59:00,SystemResetWarning,0813.1,5.01,000.00,019.0,018.7,000.0,027.2,020.2,6.8,0000.0,0002.13,0014.97,0000.45
